This is the latest recevied weather packets stored in our database for station/object OE6PWE-13. If no packets are shown the sender has not sent any weather packets the latest 10 day(s).
| Time | Temp. | Humidity | Pressure | Rain* | Wind** | Luminosity | Snow |
|---|---|---|---|---|---|---|---|
| 1777739419 | 23.89° C | 36% | 1018 hPa | 0 mm | - | - | - |
| 1777738513 | 24.44° C | 35% | 1018 hPa | 0 mm | - | - | - |
| 1777736713 | 25° C | 34% | 1018 hPa | 0 mm | - | - | - |
| 1777735819 | 25° C | 34% | 1018 hPa | 0 mm | - | - | - |
| 1777734913 | 25.56° C | 34% | 1019 hPa | 0 mm | - | - | - |
| 1777734021 | 25.56° C | 33% | 1019 hPa | 0 mm | - | - | - |
| 1777733113 | 25.56° C | 33% | 1019 hPa | 0 mm | - | - | - |
| 1777732220 | 25.56° C | 33% | 1019 hPa | 0 mm | - | - | - |
| 1777731313 | 25.56° C | 32% | 1019 hPa | 0 mm | - | - | - |
| 1777730423 | 26.11° C | 32% | 1019 hPa | 0 mm | - | - | - |
| 1777729513 | 26.11° C | 31% | 1019 hPa | 0 mm | - | - | - |
| 1777728619 | 25.56° C | 32% | 1019 hPa | 0 mm | - | - | - |
| 1777727713 | 25° C | 33% | 1020 hPa | 0 mm | - | - | - |
| 1777725913 | 25° C | 31% | 1020 hPa | 0 mm | - | - | - |
| 1777725021 | 25° C | 32% | 1020 hPa | 0 mm | - | - | - |
| 1777724113 | 25.56° C | 33% | 1020 hPa | 0 mm | - | - | - |
| 1777723219 | 25° C | 34% | 1020 hPa | 0 mm | - | - | - |
| 1777722314 | 23.33° C | 34% | 1021 hPa | 0 mm | - | - | - |
| 1777720513 | 23.33° C | 39% | 1021 hPa | 0 mm | - | - | - |
| 1777719620 | 23.33° C | 37% | 1021 hPa | 0 mm | - | - | - |
| 1777718713 | 23.33° C | 38% | 1022 hPa | 0 mm | - | - | - |
| 1777717820 | 22.78° C | 38% | 1022 hPa | 0 mm | - | - | - |
| 1777716914 | 21.67° C | 40% | 1022 hPa | 0 mm | - | - | - |
| 1777716025 | 21.11° C | 41% | 1022 hPa | 0 mm | - | - | - |
| 1777715113 | 21.11° C | 42% | 1023 hPa | 0 mm | - | - | - |
* Rain latest hour (hover to see other rain measurements)
** Current wind speed in m/s (hover to see current wind gust speed)